When you browse on this site, cookies collect data to enhance your experience and personalize the content and advertising you see.
Visit our Privacy Policy to learn more. By continuing to use the site, you agree to this use of cookies and data.
  • en France
  • Liste des pays
  • À 7 jours
  • Température de l'eau
  • Carte météo
  • Widgets météo
  • user-avatar
    Se connecter

    Météo par heure à Linz

    Ce jour, 23 Août, Vendredi

    Heure Température Précipitation Vent Pression Humidité
    00:00 +14°C° 0 mm 0 m/s 740 mmHg 92%
    01:00 +14°C° 0 mm 0 m/s 741 mmHg 93%
    02:00 +14°C° 0 mm 0 m/s 740 mmHg 93%
    03:00 +14°C° 0 mm 0 m/s 740 mmHg 94%
    04:00 +14°C° 0 mm 0 m/s 740 mmHg 94%
    05:00 +15°C° 0 mm 0 m/s 740 mmHg 92%
    06:00 +15°C° 0 mm 0 m/s 740 mmHg 90%
    07:00 +16°C° 0 mm 0 m/s 740 mmHg 88%
    08:00 +20°C° 0 mm 1 m/s 740 mmHg 83%
    09:00 +20°C° 0 mm 2 m/s 740 mmHg 77%
    10:00 +23°C° 0 mm 2 m/s 741 mmHg 72%
    11:00 +24°C° 0 mm 2 m/s 740 mmHg 69%
    12:00 +25°C° 0 mm 3 m/s 740 mmHg 67%
    13:00 +26°C° 0 mm 3 m/s 739 mmHg 64%
    14:00 +26°C° 0.1 mm 3 m/s 739 mmHg 66%
    15:00 +26°C° 0.1 mm 3 m/s 739 mmHg 67%
    16:00 +26°C° 0.1 mm 3 m/s 739 mmHg 69%
    17:00 +25°C° 0 mm 2 m/s 739 mmHg 74%
    18:00 +23°C° 0 mm 2 m/s 738 mmHg 79%
    19:00 +22°C° 0 mm 1 m/s 738 mmHg 84%
    20:00 +22°C° 0 mm 1 m/s 738 mmHg 85%
    21:00 +20°C° 0 mm 2 m/s 738 mmHg 86%
    22:00 +20°C° 0 mm 2 m/s 738 mmHg 87%
    23:00 +19°C° 0 mm 2 m/s 738 mmHg 89%

    Demain, 24 Août, Samedi

    Heure Température Précipitation Vent Pression Humidité
    00:00 +19°C° 0 mm 2 m/s 738 mmHg 91%
    01:00 +19°C° 0 mm 1 m/s 738 mmHg 92%
    02:00 +19°C° 0 mm 1 m/s 738 mmHg 93%
    03:00 +19°C° 0 mm 1 m/s 737 mmHg 94%
    04:00 +18°C° 0 mm 1 m/s 737 mmHg 95%
    05:00 +19°C° 0 mm 1 m/s 737 mmHg 93%
    06:00 +19°C° 0 mm 1 m/s 737 mmHg 92%
    07:00 +20°C° 0 mm 1 m/s 737 mmHg 90%
    08:00 +22°C° 0 mm 1 m/s 737 mmHg 84%
    09:00 +23°C° 0 mm 2 m/s 737 mmHg 79%
    10:00 +25°C° 0 mm 2 m/s 737 mmHg 73%
    11:00 +26°C° 0 mm 2 m/s 737 mmHg 69%
    12:00 +28°C° 0 mm 2 m/s 737 mmHg 65%
    13:00 +29°C° 0 mm 2 m/s 736 mmHg 61%
    14:00 +29°C° 0.1 mm 2 m/s 736 mmHg 60%
    15:00 +30°C° 0.1 mm 2 m/s 736 mmHg 59%
    16:00 +30°C° 0.1 mm 2 m/s 736 mmHg 58%
    17:00 +28°C° 0.2 mm 2 m/s 736 mmHg 64%
    18:00 +26°C° 0.2 mm 2 m/s 736 mmHg 69%
    19:00 +24°C° 0.2 mm 2 m/s 735 mmHg 75%
    20:00 +23°C° 0 mm 2 m/s 736 mmHg 77%
    21:00 +22°C° 0 mm 1 m/s 736 mmHg 79%
    22:00 +21°C° 0 mm 1 m/s 736 mmHg 81%
    23:00 +20°C° 0.1 mm 1 m/s 736 mmHg 82%

    Après-demain, 25 Août, Dimanche

    Heure Température Précipitation Vent Pression Humidité
    00:00 +20°C° 0.1 mm 1 m/s 735 mmHg 82%
    01:00 +19°C° 0.1 mm 1 m/s 735 mmHg 83%
    02:00 +17°C° 0.1 mm 0 m/s 735 mmHg 84%
    03:00 +17°C° 0.1 mm 0 m/s 735 mmHg 85%
    04:00 +16°C° 0.1 mm 0 m/s 735 mmHg 86%
    05:00 +17°C° 0 mm 0 m/s 735 mmHg 84%
    06:00 +18°C° 0 mm 0 m/s 735 mmHg 82%
    07:00 +19°C° 0 mm 0 m/s 735 mmHg 81%
    08:00 +21°C° 0 mm 0 m/s 735 mmHg 75%
    09:00 +22°C° 0 mm 0 m/s 736 mmHg 70%
    10:00 +24°C° 0 mm 0 m/s 736 mmHg 64%
    11:00 +27°C° 0 mm 1 m/s 736 mmHg 60%
    12:00 +29°C° 0 mm 1 m/s 736 mmHg 57%
    13:00 +30°C° 0 mm 1 m/s 735 mmHg 53%
    14:00 +30°C° 0.1 mm 1 m/s 735 mmHg 53%
    15:00 +30°C° 0.1 mm 1 m/s 735 mmHg 54%
    16:00 +30°C° 0.1 mm 1 m/s 735 mmHg 54%
    17:00 +28°C° 0.1 mm 1 m/s 735 mmHg 61%
    18:00 +26°C° 0.1 mm 1 m/s 735 mmHg 68%
    19:00 +24°C° 0.1 mm 1 m/s 735 mmHg 75%
    20:00 +23°C° 0.4 mm 1 m/s 735 mmHg 79%
    21:00 +22°C° 0.4 mm 1 m/s 735 mmHg 83%
    22:00 +21°C° 0.4 mm 1 m/s 736 mmHg 87%
    23:00 +21°C° 0.2 mm 1 m/s 736 mmHg 88%

    26 Août, Lundi

    Heure Température Précipitation Vent Pression Humidité
    00:00 +21°C° 0.2 mm 1 m/s 736 mmHg 89%
    01:00 +20°C° 0.2 mm 1 m/s 736 mmHg 90%
    02:00 +20°C° 0 mm 1 m/s 736 mmHg 90%
    03:00 +20°C° 0 mm 1 m/s 735 mmHg 91%
    04:00 +17°C° 0 mm 0 m/s 735 mmHg 91%
    05:00 +18°C° 0 mm 0 m/s 736 mmHg 90%
    06:00 +19°C° 0 mm 0 m/s 736 mmHg 88%
    07:00 +19°C° 0 mm 0 m/s 736 mmHg 87%
    08:00 +21°C° 0 mm 0 m/s 736 mmHg 80%
    09:00 +23°C° 0 mm 0 m/s 736 mmHg 74%
    10:00 +27°C° 0 mm 1 m/s 736 mmHg 67%
    11:00 +28°C° 0 mm 1 m/s 736 mmHg 63%
    12:00 +29°C° 0 mm 1 m/s 736 mmHg 59%
    13:00 +30°C° 0 mm 1 m/s 736 mmHg 55%
    14:00 +30°C° 0.1 mm 1 m/s 735 mmHg 55%
    15:00 +30°C° 0.1 mm 1 m/s 735 mmHg 56%
    16:00 +30°C° 0.1 mm 1 m/s 735 mmHg 56%
    17:00 +29°C° 0.1 mm 1 m/s 735 mmHg 62%
    18:00 +27°C° 0.1 mm 1 m/s 735 mmHg 68%
    19:00 +25°C° 0.1 mm 1 m/s 735 mmHg 74%
    20:00 +24°C° 0 mm 1 m/s 735 mmHg 76%
    21:00 +23°C° 0 mm 1 m/s 735 mmHg 78%
    22:00 +22°C° 0 mm 1 m/s 735 mmHg 80%
    23:00 +22°C° 0 mm 1 m/s 735 mmHg 82%

    27 Août, Mardi

    Heure Température Précipitation Vent Pression Humidité
    00:00 +21°C° 0 mm 1 m/s 735 mmHg 83%
    01:00 +19°C° 0 mm 0 m/s 735 mmHg 84%
    02:00 +18°C° 0 mm 0 m/s 735 mmHg 85%
    03:00 +18°C° 0 mm 0 m/s 735 mmHg 86%
    04:00 +17°C° 0 mm 0 m/s 735 mmHg 87%
    05:00 +18°C° 0 mm 0 m/s 735 mmHg 85%
    06:00 +19°C° 0 mm 0 m/s 735 mmHg 83%
    07:00 +20°C° 0 mm 0 m/s 736 mmHg 80%
    08:00 +22°C° 0 mm 0 m/s 736 mmHg 74%
    09:00 +24°C° 0 mm 0 m/s 736 mmHg 68%
    10:00 +26°C° 0 mm 0 m/s 736 mmHg 62%
    11:00 +29°C° 0 mm 1 m/s 736 mmHg 58%
    12:00 +30°C° 0 mm 1 m/s 736 mmHg 54%
    13:00 +31°C° 0 mm 1 m/s 736 mmHg 50%
    14:00 +31°C° 0.1 mm 1 m/s 736 mmHg 50%
    15:00 +29°C° 0.1 mm 0 m/s 736 mmHg 50%
    16:00 +29°C° 0.1 mm 0 m/s 735 mmHg 50%
    17:00 +27°C° 0 mm 0 m/s 735 mmHg 56%
    18:00 +25°C° 0 mm 0 m/s 735 mmHg 63%
    19:00 +25°C° 0 mm 1 m/s 735 mmHg 70%
    20:00 +24°C° 0 mm 1 m/s 735 mmHg 72%
    21:00 +24°C° 0 mm 1 m/s 736 mmHg 74%
    22:00 +23°C° 0 mm 1 m/s 736 mmHg 76%
    23:00 +22°C° 0 mm 1 m/s 736 mmHg 77%

    28 Août, Mercredi

    Heure Température Précipitation Vent Pression Humidité
    00:00 +22°C° 0 mm 1 m/s 736 mmHg 79%
    01:00 +21°C° 0 mm 1 m/s 736 mmHg 80%
    02:00 +21°C° 0 mm 1 m/s 736 mmHg 81%
    03:00 +20°C° 0 mm 1 m/s 735 mmHg 82%
    04:00 +18°C° 0 mm 0 m/s 735 mmHg 83%
    05:00 +19°C° 0 mm 0 m/s 735 mmHg 80%
    06:00 +19°C° 0 mm 0 m/s 735 mmHg 78%
    07:00 +20°C° 0 mm 0 m/s 735 mmHg 75%
    08:00 +24°C° 0 mm 1 m/s 735 mmHg 69%
    09:00 +26°C° 0 mm 1 m/s 735 mmHg 62%
    10:00 +28°C° 0 mm 1 m/s 735 mmHg 56%
    11:00 +29°C° 0 mm 1 m/s 735 mmHg 53%
    12:00 +30°C° 0 mm 1 m/s 735 mmHg 49%
    13:00 +32°C° 0 mm 2 m/s 734 mmHg 46%
    14:00 +32°C° 0 mm 2 m/s 734 mmHg 45%
    15:00 +32°C° 0 mm 2 m/s 734 mmHg 45%
    16:00 +34°C° 0 mm 2 m/s 733 mmHg 44%
    17:00 +30°C° 0 mm 2 m/s 733 mmHg 50%
    18:00 +28°C° 0 mm 2 m/s 733 mmHg 55%
    19:00 +26°C° 0 mm 2 m/s 733 mmHg 61%
    20:00 +25°C° 0 mm 2 m/s 733 mmHg 62%
    21:00 +24°C° 0 mm 2 m/s 733 mmHg 64%
    22:00 +23°C° 0 mm 2 m/s 733 mmHg 65%
    23:00 +22°C° 0 mm 1 m/s 733 mmHg 67%
    Voir plus